Flag for U.S.A. Weather past 2 weeks in Provincetown, Massachusetts, U.S.A.

Now
41 °F

Overcast.


Feels Like: 33 °F
Forecast: 37 / 43 °F
Wind: 16 mph from West

Location: Provincetown Weather Reporting Station

Current Time: Dec 18, 2014 at 3:41:45 AM

Latest Report: Dec 18, 2014 at 3:15 AM


Visibility: 10 mi

Pressure: 29.72 "Hg

Humidity: 70%

Dew point: 32 °F

Location of ProvincetownLocation

Historic Weather in Provincetown — Graph

°F

Provincetown temperature yesterday

Maximum temperature yesterday: 54 °F (at 7:35 AM)
Minimum temperature yesterday: 43 °F (at 11:55 PM)
Average temperature yesterday: 48 °F

Past Weeks' High & Low Weather Summary

 TemperatureHumidityPressure
High57 °F (Dec 3, 7:35 AM)100% (Dec 9, 5:35 PM)30.73 "Hg (Dec 9, 5:35 PM)
Low27 °F (Dec 5, 6:35 AM)37% (Dec 4, 1:15 PM)29.43 "Hg (Dec 10, 6:35 PM)
Average42 °F75%30.04 "Hg
* Reported Dec 3 2:15 AM — Dec 18 2:35 AM, Provincetown, Weather by CustomWeather, © 2014

Note: Actual official high and low records may vary slightly from our data, if they occured in-between our weather recording intervals... More about our weather records

Advertising

Provincetown weather history for previous 24 hours

 ConditionsComfort  
Time TempWeatherWind HumidityBarometerVisibility
2:35 AM
Dec 18
43 °FOvercast.18 mph66%29.72 "Hg10 mi
2:15 AM43 °FOvercast.16 mph71%29.72 "Hg10 mi
1:55 AM43 °FOvercast.16 mph66%29.71 "Hg10 mi
1:35 AM43 °FOvercast.17 mph66%29.71 "Hg10 mi
1:15 AM43 °FOvercast.14 mph71%29.71 "Hg10 mi
12:55 AM43 °FOvercast.16 mph71%29.71 "Hg10 mi
12:35 AM43 °FOvercast.16 mph71%29.71 "Hg10 mi
12:15 AM43 °FOvercast.21 mph76%29.70 "Hg10 mi
11:55 PM
Dec 17
43 °FOvercast.21 mph76%29.70 "Hg10 mi
11:35 PM45 °FOvercast.18 mph71%29.70 "Hg10 mi
11:15 PM45 °FMostly cloudy.17 mph71%29.70 "Hg10 mi
10:35 PM45 °FMostly cloudy.20 mph76%29.71 "Hg10 mi
10:15 PM45 °FMostly cloudy.17 mph76%29.72 "Hg10 mi
9:55 PM45 °FOvercast.16 mph76%29.71 "Hg10 mi
9:35 PM46 °FOvercast.15 mph71%29.71 "Hg10 mi
9:15 PM46 °FOvercast.15 mph76%29.71 "Hg10 mi
8:55 PM46 °FOvercast.14 mph76%29.71 "Hg10 mi
8:35 PM46 °FOvercast.15 mph76%29.71 "Hg10 mi
8:15 PM46 °FOvercast.14 mph76%29.71 "Hg10 mi
7:55 PM46 °FMostly cloudy.13 mph82%29.71 "Hg10 mi
7:35 PM46 °FMostly cloudy.12 mph82%29.71 "Hg10 mi
6:55 PM46 °FMostly cloudy.15 mph76%29.72 "Hg10 mi
6:35 PM46 °FMostly cloudy.15 mph82%29.71 "Hg10 mi
6:15 PM46 °FMostly cloudy.10 mph87%29.71 "Hg10 mi
5:35 PM46 °FMostly cloudy.12 mph87%29.71 "Hg10 mi
5:15 PM46 °FOvercast.14 mph87%29.70 "Hg10 mi
4:55 PM46 °FPassing clouds.15 mph82%29.70 "Hg10 mi
4:35 PM45 °FPassing clouds.14 mph87%29.69 "Hg10 mi
4:15 PM45 °FPassing clouds.17 mph81%29.69 "Hg10 mi
3:55 PM46 °FOvercast.18 mph82%29.68 "Hg10 mi
3:35 PM46 °FMore clouds than sun.17 mph82%29.68 "Hg10 mi
3:15 PM45 °FLow clouds.15 mph87%29.67 "Hg10 mi
2:55 PM45 °FLow clouds.17 mph87%29.67 "Hg10 mi
2:35 PM45 °FLow clouds.18 mph87%29.67 "Hg10 mi
2:15 PM45 °FLow clouds.16 mph87%29.67 "Hg10 mi
1:55 PM45 °FLow clouds.18 mph81%29.67 "Hg10 mi
1:35 PM45 °FLow clouds.16 mph81%29.67 "Hg10 mi
1:15 PM45 °FLow clouds.17 mph87%29.67 "Hg5 mi
12:55 PM46 °FLow clouds.20 mph82%29.67 "Hg1 mi
12:35 PM46 °FLow clouds.17 mph82%29.68 "Hg2 mi
12:15 PM48 °FLow clouds.17 mph82%29.68 "Hg4 mi
11:55 AM48 °FLow clouds.17 mph82%29.68 "Hg7 mi
11:35 AM48 °FLow clouds.16 mph82%29.68 "Hg5 mi
11:15 AM48 °FLow clouds.N/A82%29.68 "Hg6 mi
10:55 AM48 °FLow clouds.14 mph82%29.70 "Hg4 mi
10:35 AM48 °FLow clouds.12 mph87%29.70 "Hg8 mi
10:15 AM48 °FLow clouds.9 mph87%29.71 "Hg2 mi
9:55 AM50 °FLow clouds.9 mph82%29.72 "Hg1 mi
9:35 AM54 °FLow clouds.8 mph82%29.71 "Hg1 mi
9:15 AM54 °FMostly cloudy.7 mph82%29.71 "Hg8 mi
8:55 AM54 °FMostly cloudy.7 mph82%29.71 "Hg7 mi
8:35 AM54 °FMostly cloudy.8 mph82%29.72 "Hg8 mi
8:15 AM54 °FLow clouds.8 mph82%29.72 "Hg3 mi
7:55 AM52 °FMostly cloudy.7 mph88%29.72 "Hg3 mi
7:35 AM54 °FMostly cloudy.7 mph82%29.72 "Hg7 mi
7:15 AM52 °FLow clouds.7 mph88%29.73 "Hg7 mi
6:55 AM52 °FMostly cloudy.6 mph88%29.74 "Hg10 mi
6:35 AM52 °FMostly cloudy.6 mph88%29.74 "Hg10 mi
6:15 AM52 °FMostly cloudy.7 mph88%29.75 "Hg8 mi
5:55 AM50 °FOvercast.7 mph94%29.75 "Hg9 mi
5:35 AM50 °FPartly cloudy.8 mph94%29.75 "Hg10 mi
5:15 AM50 °FPartly cloudy.8 mph94%29.76 "Hg10 mi
4:55 AM52 °FPartly cloudy.9 mph88%29.77 "Hg10 mi
4:35 AM52 °FMostly cloudy.8 mph88%29.78 "Hg10 mi
4:15 AM52 °FLow clouds.8 mph88%29.79 "Hg7 mi
3:55 AM50 °FLow clouds.9 mph94%29.79 "Hg8 mi
3:35 AM50 °FMostly cloudy.9 mph88%29.79 "Hg10 mi
3:15 AM48 °FOvercast.9 mph94%29.81 "Hg10 mi
Weather by CustomWeather, © 2014

See weather overviewHow to use our weather pages